GFSFLT2_250_rhum_039.txt.gz
RH
45 42 29 23 19 19 23 22 24 25 28 24 19 12 7 6 5 5 5 4 4 4 3 3 3 3 4
40 32 27 19 22 20 22 25 26 26 18 9 7 5 5 4 4 4 4 4 4 3 3 3 3 3 3
32 25 22 25 24 25 23 27 23 11 6 5 6 4 4 4 4 4 4 4 3 3 3 3 2 2 2
22 24 27 26 23 25 28 22 9 5 5 4 4 4 4 5 4 4 3 3 3 3 2 2 2 2 2
26 25 24 23 27 26 16 6 6 3 4 4 4 4 4 4 4 4 4 4 3 3 3 2 2 2 2
22 20 25 25 24 12 6 5 4 3 5 4 3 3 4 4 4 4 4 4 5 5 5 4 3 3 2
20 25 26 20 8 6 4 4 4 3 4 3 4 4 4 5 5 5 6 7 7 7 7 6 5 5 4
26 24 12 6 5 4 4 4 3 3 5 5 4 5 5 10 9 10 10 10 10 9 8 8 8 7 6
18 8 6 4 4 5 4 4 4 3 4 7 8 13 8 14 12 12 12 12 11 11 9 8 8 7 7
7 5 4 4 4 4 5 5 5 5 6 10 9 13 9 12 13 14 12 13 13 11 10 10 9 9 7
4 4 5 4 4 5 6 8 11 12 12 12 9 11 15 9 13 15 12 11 14 13 13 12 10 8 7
4 5 4 4 5 7 8 9 10 15 14 11 10 9 10 10 9 14 15 14 19 16 11 9 9 10 9
5 4 4 5 7 7 6 7 7 8 10 10 8 7 9 9 8 11 12 11 16 14 14 12 10 8 8
4 4 6 7 6 6 5 5 5 5 8 9 6 6 7 10 10 9 13 15 12 12 12 11 9 8 7
5 7 7 6 5 5 4 5 5 5 6 9 7 7 9 9 10 11 12 14 14 14 12 9 9 7 7
8 7 6 5 4 5 5 6 5 6 7 7 9 11 11 10 12 15 18 17 17 13 10 9 8 6 5
7 5 4 4 5 5 6 6 6 6 8 9 10 12 11 11 12 14 17 17 14 12 10 8 6 6 4

GFSFLT2_250_rhum_042.txt.gz
RH
36 34 33 39 38 34 29 24 20 15 17 23 18 18 20 22 18 12 7 5 4 4 4 3 3 3 3
32 38 39 33 27 24 21 15 14 24 19 18 19 22 15 9 6 5 4 4 3 3 3 3 3 3 3
33 30 28 28 22 16 12 19 22 20 19 22 15 8 5 4 4 3 3 3 4 3 3 3 3 3 3
25 27 22 20 13 13 20 22 22 19 14 10 6 4 3 3 4 4 4 3 3 3 3 3 3 2 2
28 24 17 13 17 21 21 22 19 10 7 5 4 3 4 4 3 3 3 3 3 3 3 3 3 3 3
21 16 15 19 20 24 26 20 14 4 4 4 4 4 3 3 4 3 4 4 4 4 4 4 4 4 4
14 18 20 22 26 27 19 11 5 3 4 5 3 3 4 4 4 4 4 5 6 7 9 8 7 6 6
22 22 26 28 23 17 8 6 4 3 4 6 4 4 4 5 8 7 9 10 10 11 12 12 11 10 8
25 27 25 17 10 7 5 4 5 4 3 7 6 8 7 6 11 11 10 9 10 10 12 12 11 11 10
30 21 14 7 5 4 4 5 5 5 5 9 7 7 8 5 8 12 9 10 11 12 12 12 10 10 10
22 10 6 4 4 4 4 4 6 8 8 8 6 5 6 6 4 9 10 8 9 10 13 11 11 12 11
7 5 4 4 4 4 4 6 7 8 7 6 5 4 4 4 5 6 9 8 8 9 12 11 12 14 12
4 4 5 4 4 5 5 5 5 5 5 5 4 4 4 5 4 7 7 8 9 11 11 12 13 12 12
5 5 4 4 5 5 5 4 4 4 6 5 5 4 5 7 6 7 7 8 12 12 15 16 16 12 10
4 5 6 6 5 4 4 4 4 4 4 7 6 6 8 7 8 8 9 9 10 13 14 12 10 8 8
6 6 5 5 4 4 4 4 5 5 6 6 7 8 8 10 10 9 9 13 16 14 11 10 10 8 7
5 4 4 4 4 5 5 5 6 6 6 7 7 8 10 10 11 13 15 14 13 12 12 10 9 7 6

GFSFLT2_250_rhum_045.txt.gz
RH
68 53 50 48 45 44 37 32 31 25 21 17 19 19 21 17 19 21 20 19 15 11 8 6 5 4 4
50 45 44 40 34 31 31 26 23 22 16 17 18 18 19 21 19 19 13 8 5 4 4 4 3 3 3
45 41 41 39 32 29 28 23 18 16 15 16 18 21 19 17 12 7 5 4 3 3 3 2 3 3 3
35 34 32 34 28 24 24 20 19 17 17 22 22 20 16 7 5 4 3 3 3 3 3 3 2 2 2
43 47 38 31 23 24 22 21 18 21 23 22 18 10 6 5 4 3 4 3 3 3 3 3 3 3 3
38 32 29 24 21 17 16 24 28 23 21 14 6 6 4 3 4 4 4 3 4 4 3 3 3 3 3
32 26 19 16 16 24 26 26 24 14 8 7 4 4 3 4 4 5 5 5 6 7 6 6 7 7 7
24 18 18 25 26 28 24 16 10 6 4 4 3 4 4 3 4 7 10 8 7 8 9 8 8 8 8
22 27 28 28 24 17 11 6 5 3 3 5 4 4 4 3 4 7 10 11 8 8 9 9 9 9 9
31 28 23 18 10 6 4 4 3 5 4 5 4 6 7 5 5 5 7 8 7 6 8 8 8 8 10
30 23 16 8 5 4 3 4 4 4 5 7 6 6 6 5 4 4 8 6 5 4 6 7 7 8 11
20 11 7 4 4 4 4 4 4 6 6 4 4 4 4 4 4 4 7 5 5 5 6 6 7 9 10
8 6 4 4 4 5 5 5 4 4 4 4 4 4 4 4 4 5 5 6 5 5 7 6 7 9 9
5 4 5 4 5 5 5 4 3 3 5 5 5 5 5 6 6 6 6 7 6 6 6 7 10 10 10
5 5 6 5 4 4 4 4 4 4 5 6 5 6 7 7 7 8 7 8 9 8 7 8 14 13 12
6 6 5 4 4 4 4 4 4 4 5 5 6 6 7 7 8 8 9 9 8 11 15 16 17 14 11
6 6 5 5 4 4 4 4 4 5 5 6 6 7 7 8 10 9 10 15 18 18 14 11 10 9 8

GFSFLT2_250_rhum_051.txt.gz
RH
69 76 74 85 85 81 71 64 59 54 49 46 45 47 49 46 44 43 39 36 35 32 30 27 25 23 20
61 64 72 66 64 64 64 66 57 55 52 54 61 59 54 49 43 38 34 31 28 25 22 20 20 17 15
67 60 61 64 65 66 67 66 66 62 60 56 47 38 35 36 33 33 29 23 20 21 19 17 16 14 12
60 66 66 61 63 68 76 67 58 45 36 31 28 25 23 22 22 23 22 19 19 19 20 18 16 15 14
70 71 68 71 67 59 45 38 36 28 29 35 35 32 32 29 26 24 22 20 20 20 18 18 16 13 11
76 67 55 52 39 41 46 40 40 34 27 27 21 21 17 14 11 10 10 10 10 8 6 5 5 4 4
55 52 45 44 47 47 41 30 27 24 18 17 12 10 7 6 4 4 4 4 4 4 3 3 3 3 3
52 56 58 51 38 30 26 22 18 12 6 6 5 5 4 3 2 2 2 3 3 4 4 4 4 3 3
63 50 40 33 25 20 16 13 10 7 4 3 3 3 3 3 2 2 3 4 4 4 5 4 4 4 4
40 35 28 20 16 14 10 6 4 4 3 4 4 3 4 3 3 3 3 4 4 4 4 4 4 4 5
33 26 20 14 10 7 4 3 4 4 4 4 4 4 4 4 3 3 4 4 4 3 3 3 4 4 4
25 17 13 9 6 5 4 5 4 5 4 4 4 3 3 4 4 4 4 4 4 4 4 4 4 4 4
11 8 7 6 6 7 6 6 6 5 4 4 3 3 3 4 4 4 4 5 5 6 6 5 5 5 5
7 7 7 7 8 8 7 6 5 5 4 4 4 4 4 4 5 5 5 5 6 6 7 6 6 6 6
9 9 8 9 9 8 7 7 7 5 5 4 5 5 5 5 5 6 6 7 7 8 8 8 7 8 8
9 10 10 9 8 8 8 8 7 7 6 6 6 6 6 6 7 8 8 9 10 10 10 9 8 8 8
12 10 8 9 9 9 9 9 10 10 11 12 13 12 11 11 11 13 12 14 15 16 16 17 17 16 15

GFSFLT2_250_rhum_054.txt.gz
RH
62 67 75 71 73 78 60 58 55 56 56 55 61 63 65 65 62 64 67 69 66 62 54 48 44 41 39
63 62 54 73 89 63 63 57 57 58 52 47 47 42 40 38 36 37 39 41 43 45 47 46 41 37 33
71 71 85 84 82 66 64 62 54 52 42 32 27 26 25 26 32 41 40 38 39 37 31 27 25 22 20
88 91 90 73 60 58 54 51 48 39 30 29 36 37 34 32 33 30 28 29 30 30 30 26 18 13 10
81 75 68 61 65 57 48 39 36 38 44 42 31 28 24 22 18 16 14 13 14 15 16 16 16 16 15
71 83 64 54 49 43 36 45 46 39 40 39 28 27 20 14 8 6 5 4 4 5 6 6 6 6 6
78 58 55 49 50 55 47 40 42 38 35 37 24 18 8 5 4 3 3 2 2 3 3 3 3 3 3
49 45 49 46 41 40 38 39 39 30 16 14 8 5 4 3 2 2 2 3 4 4 3 3 2 2 2
53 47 44 39 36 35 33 34 22 14 7 5 4 4 4 4 3 2 3 4 3 3 3 3 3 3 3
42 41 38 34 31 30 20 12 8 8 5 6 6 5 6 4 3 3 3 3 3 3 3 3 3 3 3
37 34 29 25 18 11 8 7 6 7 6 8 8 6 5 4 3 3 3 3 3 3 3 4 4 4 4
28 19 14 12 8 7 6 7 8 9 9 6 7 6 4 4 4 3 4 4 4 4 4 4 4 4 4
11 8 8 7 8 9 9 8 8 9 9 7 6 6 6 5 5 5 5 4 5 5 5 5 5 5 6
8 9 9 9 9 10 10 9 8 7 9 8 8 8 8 7 6 6 6 6 6 6 6 6 6 6 7
9 8 9 10 12 10 9 10 9 9 8 10 12 15 10 11 11 10 10 9 8 8 8 8 8 8 8
11 14 16 13 10 9 9 10 10 11 14 15 17 16 18 18 18 18 16 17 16 16 14 13 13 12 10
19 15 11 10 10 10 11 9 11 20 22 22 22 22 20 20 18 17 15 14 14 14 14 14 14 13 13

GFSFLT2_250_rhum_057.txt.gz
RH
90 100 100 100 98 95 72 58 58 68 65 68 58 53 52 52 51 53 48 45 42 42 41 41 44 49 55
91 74 66 65 68 66 76 78 71 68 62 58 56 51 43 37 39 40 40 34 35 34 37 38 38 42 40
98 88 74 68 67 73 72 71 66 71 69 57 48 43 45 44 44 44 39 31 30 29 28 30 31 34 36
78 83 80 83 77 62 70 78 84 70 60 53 49 52 45 37 30 26 23 23 21 18 17 16 16 17 19
97 83 75 70 77 82 82 70 63 61 59 60 45 36 31 26 22 21 15 9 7 6 5 5 5 6 7
80 70 79 71 78 66 59 60 65 65 46 39 34 34 28 22 15 7 5 4 3 3 3 2 2 2 3
68 78 71 58 59 62 66 60 44 40 36 42 37 29 21 11 5 4 4 3 3 3 3 3 2 2 2
53 57 58 64 67 60 45 42 41 36 27 34 21 11 8 5 4 4 5 4 4 4 3 3 3 3 3
62 70 66 54 47 42 40 36 33 26 15 10 7 7 5 5 5 6 6 5 4 3 3 3 3 3 3
64 59 50 43 39 36 31 20 11 9 8 8 6 7 8 5 6 6 6 5 4 3 3 3 3 3 3
50 43 38 36 33 25 14 9 8 8 9 9 8 8 8 9 6 7 7 5 5 4 4 3 4 4 4
39 36 32 25 15 10 8 8 8 8 8 10 10 8 8 8 7 7 7 8 5 6 5 4 4 5 4
31 22 15 10 7 8 9 8 9 11 10 9 10 9 9 8 11 11 10 11 9 7 7 6 6 6 6
16 13 9 8 11 12 13 12 9 8 10 10 10 10 17 13 18 15 19 14 15 12 11 10 9 8 8
11 8 9 10 12 15 12 10 10 10 10 9 13 17 22 20 20 18 18 17 15 14 15 14 13 11 10
9 10 10 12 15 13 12 11 11 13 14 17 19 19 21 23 20 17 15 14 13 13 13 12 13 14 14
12 12 14 18 16 13 12 12 13 15 23 23 24 23 21 17 16 15 14 13 12 12 11 11 11 11 11

GFSFLT2_250_rhum_063.txt.gz
RH
100 100 100 100 100 100 100 100 85 65 66 63 63 66 68 66 69 62 65 66 66 64 70 66 61 61 61
100 100 100 100 100 100 100 83 80 74 74 74 80 73 64 61 67 73 71 68 65 59 52 50 52 52 49
100 100 100 99 96 80 78 84 90 82 76 77 76 76 69 68 71 71 66 56 50 45 48 54 48 43 40
88 88 91 86 80 76 75 81 87 87 82 75 74 71 72 67 62 51 43 42 49 50 46 45 44 39 34
91 90 83 82 75 81 84 86 80 75 75 72 59 54 43 41 41 40 43 46 46 44 41 39 34 26 19
81 81 81 88 81 77 75 67 66 70 69 61 54 50 41 43 41 41 41 41 39 35 29 23 16 10 6
87 84 80 75 80 81 79 76 75 76 66 56 42 44 42 39 35 32 27 24 19 14 12 9 7 6 5
90 95 95 86 82 80 77 70 58 51 49 48 44 41 32 22 17 14 12 10 9 8 7 7 8 7 5
94 85 93 98 91 73 61 54 51 48 40 33 26 24 14 9 10 9 8 8 8 8 10 10 8 5 6
100 99 83 73 67 59 53 48 41 33 27 21 10 10 11 7 7 7 9 11 11 10 9 8 8 7 6
76 69 65 59 55 50 42 30 23 18 17 17 11 9 8 8 6 10 11 10 11 10 10 11 11 12 12
58 53 48 43 37 27 22 20 15 14 12 13 10 8 9 12 14 10 9 11 10 13 16 17 19 18 17
41 43 42 33 28 21 16 13 12 11 11 12 12 12 15 14 12 9 11 10 16 18 19 18 17 15 13
59 49 32 20 13 12 12 13 11 9 11 16 17 19 15 12 14 12 16 20 21 21 18 16 13 12 12
40 22 13 11 12 13 12 10 9 10 12 20 21 15 12 14 16 24 24 25 22 18 14 13 14 11 10
18 13 11 12 12 11 11 11 11 12 20 20 15 12 16 20 27 28 27 22 17 16 18 15 18 20 15
13 12 12 11 10 11 12 13 14 21 20 18 14 15 19 30 28 27 23 25 25 30 28 29 24 18 16

GFSFLT2_250_rhum_066.txt.gz
RH
100 100 100 100 100 100 100 100 100 100 100 100 100 100 96 89 82 77 69 78 75 72 73 71 72 73 78
100 100 100 100 100 100 100 100 100 100 100 100 100 100 85 75 76 76 84 88 79 82 78 66 63 59 58
96 100 100 100 100 100 100 100 100 99 93 92 81 78 82 76 77 75 66 72 66 60 58 57 55 53 51
81 79 81 91 93 87 83 77 78 79 86 84 81 69 64 60 56 47 45 46 47 48 51 51 52 52 52
97 99 100 85 79 78 86 92 90 81 72 66 66 58 49 44 39 41 44 46 47 49 49 48 46 43 41
97 86 85 97 86 92 92 83 81 81 71 55 50 45 45 45 47 47 41 39 39 37 34 31 28 26 24
99 96 88 83 85 81 76 60 55 54 56 51 51 46 43 35 30 30 32 28 24 22 16 12 11 10 10
86 84 78 69 63 58 58 59 60 59 62 58 52 46 26 20 20 20 17 13 12 10 9 9 8 7 6
67 64 67 74 78 72 67 65 60 56 58 57 44 36 22 17 13 12 11 10 8 8 7 7 6 6 7
82 73 68 65 63 62 62 62 56 46 40 30 23 26 23 9 6 9 10 9 8 8 10 10 10 10 9
67 64 64 63 62 58 49 40 33 28 27 31 19 13 10 10 6 8 9 9 11 15 12 10 9 9 10
68 66 66 63 60 44 39 37 33 28 18 16 15 12 11 8 8 8 10 15 16 11 12 13 13 16 19
64 66 62 46 41 41 40 33 18 13 12 13 12 10 9 8 11 12 16 11 16 14 18 21 21 22 20
62 49 43 44 42 34 20 14 12 10 10 11 11 10 10 12 21 20 14 13 16 19 20 24 22 18 17
43 48 47 38 21 13 12 11 10 9 9 12 15 16 16 22 18 18 14 19 22 24 24 22 22 18 14
59 48 30 15 11 11 10 9 9 10 11 13 18 22 21 16 18 16 20 25 28 26 22 16 20 28 21
46 23 12 10 10 9 9 11 12 12 12 19 24 21 15 14 18 20 26 29 26 23 26 31 39 47 34

GFSFLT2_250_rhum_069.txt.gz
RH
68 86 99 100 100 100 100 100 100 100 100 100 100 100 100 100 100 94 99 100 100 100 100 99 89 87 84
100 92 82 99 100 100 100 100 100 100 100 100 100 100 100 100 100 100 100 100 100 98 95 77 66 66 73
100 100 100 97 100 100 100 100 93 100 100 100 100 100 95 92 90 85 90 91 80 72 63 61 54 50 48
91 99 100 100 100 100 100 100 100 100 99 88 86 91 88 82 73 63 59 57 55 53 51 49 50 52 53
94 97 100 100 100 99 99 97 93 92 96 93 81 60 56 51 50 51 52 54 54 56 56 52 48 46 46
97 97 97 95 95 99 100 100 96 79 68 62 53 55 59 62 60 55 50 45 41 39 32 28 29 30 30
73 78 78 77 73 69 70 67 65 66 66 65 62 58 52 49 46 41 34 30 26 29 30 24 18 14 14
74 75 74 72 69 68 67 66 66 66 65 61 60 57 50 44 38 31 28 27 26 26 20 13 9 8 7
86 85 86 85 84 82 81 79 76 75 78 72 64 57 44 27 26 27 24 18 15 14 10 8 8 8 7
98 99 96 90 86 81 79 78 75 68 64 53 39 36 37 30 20 14 12 12 12 14 11 9 8 8 7
89 82 77 74 74 73 70 61 45 30 31 38 40 37 34 36 14 9 9 9 11 11 10 9 10 11 13
74 72 70 67 54 41 33 34 42 45 44 39 32 21 18 15 13 10 9 8 9 11 14 17 17 14 12
70 70 57 54 57 58 58 53 40 25 17 15 15 15 13 12 11 8 10 8 11 22 20 15 14 14 15
69 63 69 72 68 56 41 25 14 12 12 12 12 12 10 10 10 11 12 13 14 18 14 15 21 22 25
64 72 79 69 54 37 17 13 14 12 11 12 13 12 11 11 12 16 20 17 17 16 16 24 29 27 24
62 82 78 55 42 19 15 15 14 11 12 14 15 15 14 12 19 22 19 15 17 21 25 29 30 31 24
64 80 59 48 26 15 16 16 13 11 13 14 14 15 16 17 19 27 14 18 20 29 29 26 27 44 38

GFSFLT2_250_rhum_075.txt.gz
RH
28 23 21 18 9 10 15 36 100 100 100 100 100 100 100 100 100 100 100 100 100 100 97 79 99 100 100
35 32 27 25 16 16 21 40 59 100 100 100 100 100 100 100 100 100 100 100 100 100 100 99 96 100 99
40 35 31 32 30 29 56 80 70 82 100 100 100 100 100 100 100 98 100 100 100 100 100 100 82 100 98
46 43 42 38 40 46 56 64 83 94 100 96 98 100 100 100 100 100 100 100 100 100 98 98 98 86 88
51 52 52 54 59 62 65 68 69 76 77 82 94 100 100 100 99 100 100 100 100 96 97 94 98 93 89
56 58 56 59 60 61 63 70 82 94 92 100 100 100 99 98 98 100 100 98 95 94 93 84 76 71 67
68 68 64 66 69 76 79 82 87 89 85 88 88 84 80 80 80 79 77 79 80 78 74 70 66 62 58
76 77 76 70 66 69 72 77 81 82 80 82 84 82 78 75 70 66 66 66 64 62 59 54 48 44 39
83 77 72 67 63 65 70 72 73 73 71 70 72 71 67 61 54 62 74 77 75 73 67 62 59 55 49
81 80 79 73 70 69 72 74 74 79 77 73 60 54 53 60 62 58 53 45 42 39 36 33 30 28 24
72 72 72 72 71 73 75 80 78 78 81 71 56 65 58 38 31 30 23 15 13 13 14 14 14 13 13
77 77 77 76 80 81 81 81 79 79 78 64 61 56 36 33 26 12 13 13 14 14 14 12 12 12 11
74 75 78 84 85 81 77 75 75 80 69 62 60 41 34 27 15 14 13 13 12 12 12 12 12 12 10
72 79 84 86 83 80 76 76 75 65 60 63 50 37 35 20 16 14 14 10 12 13 12 13 14 15 14
74 83 85 84 83 79 79 70 60 56 55 59 43 39 33 17 18 17 14 11 11 12 15 13 16 26 23
85 89 85 82 81 75 65 52 51 54 51 38 35 44 32 16 21 18 20 19 19 21 22 20 22 29 20
90 85 82 78 66 47 39 39 37 37 33 29 35 44 26 20 18 23 25 21 21 17 19 21 19 19 16

GFSFLT2_250_rhum_078.txt.gz
RH
44 51 48 46 41 38 28 25 21 22 25 34 68 100 100 100 100 100 100 100 100 100 100 100 100 100 100
52 56 52 51 55 44 41 34 33 34 42 59 73 77 99 100 100 100 100 100 100 100 100 100 100 100 100
57 58 61 64 56 51 49 44 48 55 62 79 73 82 90 95 100 98 100 100 100 100 100 100 100 100 100
64 73 70 67 60 58 60 59 59 56 60 69 77 89 90 99 100 100 100 100 100 100 100 99 100 100 97
77 70 72 74 67 68 70 68 68 69 75 84 84 85 87 81 81 89 90 95 97 100 100 100 100 100 94
74 77 80 75 69 66 67 72 73 72 73 80 82 84 83 81 79 77 74 73 73 76 73 66 65 69 72
83 81 75 68 62 71 74 74 75 72 72 75 74 79 82 85 82 78 74 75 76 75 75 75 77 77 76
65 65 66 65 67 67 67 70 72 74 76 76 79 79 80 80 78 75 78 81 79 71 66 62 60 58 53
67 66 68 68 69 70 75 78 79 82 84 80 75 75 77 77 73 74 78 69 62 68 69 64 58 56 54
72 73 72 71 66 62 65 72 76 79 81 82 79 76 75 74 75 75 61 57 59 55 45 37 35 35 33
73 73 74 73 68 60 60 65 66 75 82 80 74 76 75 70 56 52 49 51 42 38 35 19 15 15 14
76 78 76 72 64 58 57 65 75 75 78 80 77 70 66 54 45 40 49 43 36 34 19 16 16 16 15
80 80 76 65 64 66 69 79 78 77 76 67 59 53 44 42 42 37 36 32 39 26 20 19 16 12 12
81 79 69 58 72 82 81 80 72 57 51 44 34 32 32 31 30 27 29 32 29 24 25 22 17 15 14
81 73 60 67 82 78 72 58 46 35 29 29 29 29 30 30 27 28 28 30 27 20 26 24 22 21 19
75 61 79 85 79 62 49 34 25 24 23 23 24 27 29 28 28 27 28 28 22 20 22 24 23 28 28
59 84 88 84 62 40 30 26 23 22 22 21 23 27 28 27 28 29 26 20 19 20 20 23 22 22 28

GFSFLT2_250_rhum_081.txt.gz
RH
41 38 39 45 47 52 62 62 60 57 56 40 33 40 41 45 72 76 100 95 100 100 95 100 100 100 100
41 42 48 51 56 61 61 66 70 69 56 58 57 49 52 60 64 92 100 100 100 100 100 92 97 100 100
46 47 54 58 64 70 71 69 65 60 61 57 60 70 79 73 85 88 92 97 94 96 100 100 100 100 100
45 55 61 70 73 72 70 67 64 62 63 64 64 70 71 80 96 99 96 88 87 87 94 99 97 100 100
61 69 72 75 70 67 66 60 56 58 61 64 63 66 71 74 74 76 84 92 95 91 87 79 75 77 86
72 70 76 74 74 64 60 60 63 66 64 64 67 74 78 80 80 78 80 82 84 83 85 88 89 86 80
71 80 82 70 66 63 67 68 67 68 66 63 59 63 71 75 76 79 81 83 83 83 81 77 75 74 76
82 79 72 70 70 72 73 73 71 68 67 65 57 56 61 66 74 78 77 78 78 77 76 76 74 74 74
83 76 74 74 73 70 70 71 70 69 67 54 56 55 58 65 70 74 75 74 75 78 77 77 74 67 58
78 78 76 75 74 75 74 70 68 70 62 54 67 70 70 73 72 73 72 72 69 66 56 52 50 48 45
82 77 77 76 78 80 74 68 65 61 55 59 69 73 71 66 55 51 41 39 37 37 38 40 44 42 33
80 81 81 80 81 77 73 67 62 53 64 77 72 63 48 33 28 26 27 27 29 29 31 32 29 29 31
84 84 85 81 79 79 73 63 51 64 76 66 46 34 27 25 24 22 22 24 27 29 31 32 28 30 32
93 90 84 85 81 75 60 53 70 74 56 35 27 25 24 22 21 20 21 22 24 28 32 34 32 34 32
87 88 89 87 77 63 58 81 73 41 29 26 24 23 22 20 20 21 21 23 25 26 31 36 34 35 32
89 94 89 79 63 64 83 64 34 26 22 21 22 23 23 22 23 22 21 23 26 27 30 35 27 21 24
94 88 81 69 74 87 57 31 26 22 21 20 21 24 25 25 22 22 25 28 26 22 21 23 25 15 20

GFSFLT2_250_rhum_084.txt.gz
RH
74 82 58 54 44 36 42 50 57 60 58 62 55 51 51 51 52 51 50 49 72 90 81 89 88 100 100
78 67 68 60 46 45 51 57 62 65 66 62 57 54 54 55 61 63 62 64 64 82 87 91 83 83 91
75 81 65 48 49 52 61 70 75 70 64 60 56 58 60 58 59 66 71 74 76 81 84 90 83 87 99
87 75 60 58 59 57 73 83 76 68 62 59 59 59 60 59 59 59 63 79 82 81 84 94 97 96 96
76 62 61 67 54 73 86 81 69 67 66 63 66 62 62 64 66 67 64 60 74 89 90 81 76 72 77
73 70 67 57 70 90 91 76 74 65 64 66 64 61 62 63 63 63 59 60 60 67 81 86 90 91 87
73 71 62 70 94 99 81 74 73 73 72 71 66 65 65 63 64 56 52 62 61 58 60 66 75 80 81
74 67 84 90 98 86 82 80 77 75 72 69 67 66 65 63 54 49 55 68 77 74 70 72 73 73 77
65 86 90 97 90 85 83 82 80 77 73 68 66 66 62 51 46 58 73 78 80 78 76 77 77 76 77
93 97 96 91 86 83 86 86 82 75 71 66 68 67 56 47 62 72 73 63 54 46 40 39 37 39 41
99 94 89 91 90 90 86 81 77 74 72 71 67 55 51 73 67 47 32 28 27 25 24 24 25 25 25
88 86 88 88 93 91 84 78 76 72 71 62 52 59 74 60 29 25 23 22 22 22 22 22 21 21 21
81 85 98 99 92 84 79 74 71 68 58 56 73 80 52 26 22 20 21 21 22 22 22 22 21 20 21
98 100 94 88 85 80 76 78 69 55 60 81 87 46 26 22 20 20 20 20 22 24 25 23 22 22 23
96 90 81 75 81 86 87 80 66 70 89 86 44 28 26 21 20 20 21 22 22 23 25 26 27 27 28
83 80 75 80 91 92 84 73 78 90 80 39 28 29 26 22 22 22 22 22 23 26 31 36 35 33 38
85 80 78 93 96 86 80 83 92 77 37 27 28 27 23 23 24 22 23 25 28 27 21 19 21 14 16

GFSFLT2_250_rhum_087.txt.gz
RH
70 90 85 73 66 62 56 57 54 51 53 54 59 68 66 58 54 52 53 53 53 54 55 51 62 76 91
83 79 78 74 69 68 71 55 52 55 52 58 69 70 64 59 56 56 57 58 60 60 56 63 70 80 77
81 79 83 72 69 82 75 58 61 55 56 70 75 69 67 64 60 58 58 60 60 62 64 61 63 70 89
77 88 79 69 68 78 62 64 65 64 70 79 78 74 71 68 64 64 64 64 64 63 64 61 58 61 68
74 74 84 84 73 79 68 72 67 82 81 83 82 76 69 63 63 63 62 62 62 63 64 58 56 58 62
85 74 74 87 72 67 66 61 77 89 92 82 79 72 67 67 65 64 64 65 65 60 51 44 49 54 64
79 86 82 65 68 62 64 85 93 91 84 78 73 70 68 66 66 69 70 66 60 48 44 45 53 60 69
81 59 66 64 62 83 92 92 87 87 79 76 68 66 66 68 72 72 69 58 47 45 60 67 70 70 72
69 68 62 73 92 94 89 88 89 84 75 70 69 68 67 70 71 63 49 45 60 67 61 48 38 36 37
69 62 82 85 84 84 86 84 81 80 81 71 71 73 68 62 50 45 53 69 66 39 24 24 23 23 23
63 74 70 74 84 86 81 85 94 89 76 70 75 70 66 55 49 68 65 54 28 24 23 21 21 21 21
76 84 84 82 87 87 94 96 90 77 74 79 78 73 62 59 73 70 55 30 25 24 22 20 20 20 20
89 87 93 94 94 100 98 87 77 76 83 89 88 77 66 76 74 49 29 25 26 24 22 21 21 21 21
100 100 100 100 100 94 86 80 80 84 89 94 87 85 92 84 50 29 26 26 23 22 24 26 24 21 20
92 91 91 92 89 82 80 85 90 94 97 95 90 99 87 45 31 28 26 26 22 23 26 27 26 27 28
86 91 94 86 78 82 89 90 96 100 100 100 100 89 51 37 31 27 27 24 22 24 26 29 30 20 18
83 92 86 80 83 92 96 100 100 100 94 94 90 53 40 35 31 27 25 21 23 25 28 28 20 15 16

GFSFLT2_250_rhum_090.txt.gz
RH
89 91 74 70 62 57 53 59 64 62 62 58 57 51 55 54 66 74 68 62 57 56 56 58 58 54 56
84 79 66 63 65 59 68 69 65 71 67 62 52 58 63 68 74 72 68 65 60 60 60 61 64 62 58
67 60 66 70 67 68 72 63 70 67 62 58 54 56 71 74 74 71 71 65 62 62 62 62 62 67 67
51 69 74 74 70 76 69 76 73 72 58 56 58 77 78 75 71 75 70 65 62 62 63 64 63 64 64
70 76 86 74 80 73 76 79 69 61 62 69 81 82 78 77 73 68 64 63 60 57 59 62 64 65 65
79 78 79 74 83 74 79 76 62 63 75 83 82 75 73 70 68 70 69 64 59 58 59 57 53 50 46
74 71 95 90 81 78 73 67 64 75 81 81 76 72 69 70 72 70 66 63 62 58 48 39 38 40 43
81 100 96 90 80 66 70 63 75 71 73 74 74 75 76 78 76 73 72 70 60 46 46 58 67 73 67
100 98 93 74 65 66 66 72 73 76 78 75 78 85 86 84 81 81 76 66 55 48 71 74 62 44 30
99 87 72 64 66 72 79 83 81 74 72 78 92 95 92 89 86 80 71 66 66 71 77 58 34 25 24
81 70 65 75 84 89 87 82 81 85 88 96 99 98 92 88 83 78 74 76 80 78 59 34 27 26 25
78 74 82 93 96 90 91 94 97 97 90 93 94 91 88 85 78 82 80 80 79 49 36 31 29 28 26
78 82 89 96 98 98 93 94 94 92 97 91 85 89 86 83 86 82 80 79 55 38 35 32 30 27 22
85 92 95 100 99 89 85 85 95 96 90 82 87 87 86 88 90 82 76 62 40 37 34 32 29 24 20
100 100 94 96 94 91 90 91 96 91 84 86 90 91 90 89 90 75 63 46 42 35 34 32 25 20 20
99 98 100 99 94 84 88 90 91 92 92 89 88 93 93 83 68 48 42 43 36 34 33 31 21 19 23
100 98 98 94 85 86 95 95 92 92 89 87 90 95 94 82 49 44 41 34 35 33 29 24 22 20 24

GFSFLT2_250_rhum_093.txt.gz
RH
86 96 76 70 72 60 58 61 53 52 56 59 69 68 66 56 49 54 59 73 75 73 67 64 60 61 58
60 83 60 58 59 52 63 54 56 69 80 74 73 84 66 50 52 59 71 75 71 66 62 59 58 56 57
76 65 59 51 54 50 47 52 68 72 82 78 88 78 62 57 64 72 75 69 64 63 62 62 59 56 56
46 53 46 48 45 45 50 59 76 79 88 85 83 68 62 72 77 72 67 66 66 67 66 62 60 58 55
52 49 50 47 40 49 60 74 74 82 88 90 65 64 67 73 73 69 66 68 69 67 66 66 67 63 57
53 43 49 44 57 62 77 73 100 100 92 73 68 68 74 75 73 70 74 70 72 76 76 75 67 58 46
47 47 46 48 64 82 85 98 94 93 75 70 68 78 79 78 76 77 75 76 81 83 83 74 67 56 49
43 46 50 65 81 96 100 98 92 75 69 71 85 87 80 76 73 76 78 84 90 90 82 73 68 63 70
44 51 66 87 100 100 94 87 78 72 79 93 90 86 90 83 85 86 88 89 91 84 76 77 72 66 64
63 78 88 100 100 93 82 77 80 95 96 92 95 96 94 90 86 88 82 80 84 76 80 86 72 66 51
86 94 100 100 100 92 80 87 93 91 100 99 95 91 92 94 91 80 74 83 81 84 87 77 60 44 33
100 100 100 100 96 87 84 90 89 94 98 90 87 90 93 93 81 76 85 84 86 92 89 65 44 36 33
100 100 100 98 100 95 98 100 99 100 98 89 87 92 93 88 81 81 85 88 94 92 80 50 40 36 33
97 100 100 100 100 100 100 100 100 100 98 90 91 93 99 93 84 84 86 88 96 89 55 42 41 37 32
99 100 100 100 100 100 100 100 98 100 90 92 99 97 97 90 92 85 88 95 94 53 46 41 35 32 30
100 100 100 100 100 100 100 98 100 95 92 100 98 93 99 94 88 85 93 90 58 45 44 40 31 30 30
100 100 100 100 100 98 100 98 96 98 98 96 89 99 94 90 87 90 87 60 48 44 41 38 32 27 27

GFSFLT2_250_rhum_096.txt.gz
RH
69 57 45 51 59 60 49 40 35 36 40 43 50 47 62 76 69 69 75 56 59 70 77 77 72 66 58
39 35 50 62 54 60 54 35 39 45 45 51 48 56 75 74 86 74 58 57 73 73 72 69 61 58 61
35 37 47 43 50 50 44 45 46 52 54 47 66 72 80 88 92 79 59 68 77 72 65 62 62 64 62
38 38 38 36 40 40 42 48 57 69 52 57 63 78 85 93 87 67 68 70 70 67 64 67 68 65 64
36 36 36 40 37 40 46 56 58 56 63 61 84 99 95 94 73 67 69 72 72 69 69 71 69 70 69
40 38 38 37 41 50 55 55 55 65 73 88 100 98 89 74 73 78 81 80 75 70 67 69 70 70 73
39 38 36 36 40 52 60 50 73 86 87 100 98 89 77 79 89 94 88 82 75 67 66 70 73 72 80
33 34 41 45 49 55 55 74 90 98 100 99 80 79 84 96 96 95 96 98 90 84 83 82 79 76 83
44 44 46 49 52 62 89 90 98 100 100 93 78 84 96 92 99 99 96 93 86 83 83 76 75 80 75
48 56 57 62 77 88 86 88 100 99 97 85 84 95 92 90 99 94 94 96 89 83 78 84 80 76 76
61 67 76 80 87 98 99 100 100 98 91 91 95 96 95 98 94 89 92 90 85 85 88 78 79 80 81
83 91 95 97 100 97 100 100 99 97 100 98 100 99 96 98 97 92 93 90 86 88 80 79 81 81 82
100 100 100 100 100 100 100 100 100 100 100 100 100 98 93 100 97 91 90 89 88 85 82 82 81 83 68
100 100 99 100 100 100 100 100 100 100 100 100 100 97 100 100 94 92 92 91 93 89 85 81 82 79 47
100 100 100 100 100 100 100 100 100 100 100 100 100 100 100 100 98 93 91 90 88 87 84 79 81 54 41
99 99 100 100 99 97 100 100 100 100 100 100 96 100 100 96 100 91 93 90 90 91 85 80 59 45 40
100 100 98 99 100 100 100 96 92 91 100 100 100 100 100 99 98 92 90 97 96 91 86 67 48 40 36

GFSFLT2_250_rhum_099.txt.gz
RH
36 37 37 38 38 37 37 39 38 39 36 35 39 43 52 57 52 52 53 58 71 74 61 64 81 78 73
33 34 38 36 35 35 39 40 39 36 40 41 44 50 60 58 56 53 63 83 83 73 61 69 76 73 67
34 33 34 34 37 38 41 39 38 39 42 43 48 55 68 69 58 66 75 83 83 66 65 70 72 67 62
33 34 36 38 37 36 36 40 42 48 43 50 52 71 71 68 75 69 89 91 75 72 76 78 76 71 65
34 34 35 37 38 42 44 45 45 45 47 47 58 65 75 84 75 91 92 83 78 86 86 87 83 76 70
37 39 40 44 46 42 41 44 47 44 52 58 66 74 84 92 91 92 76 81 96 100 93 91 79 70 70
34 34 36 38 38 41 42 42 50 56 56 67 85 89 92 100 93 87 79 95 100 96 96 88 84 81 74
28 30 31 34 34 41 49 52 56 62 69 87 94 97 100 100 98 83 89 96 100 99 97 96 95 92 87
25 30 33 40 46 55 59 67 70 73 89 98 99 100 100 95 91 95 100 98 100 99 95 95 93 90 88
21 30 39 47 57 72 76 78 86 96 97 100 96 100 100 94 96 97 100 100 99 93 93 97 92 88 82
24 30 44 71 85 94 97 98 99 100 100 100 100 100 96 100 100 100 99 100 99 92 96 89 86 85 79
50 60 85 92 97 98 100 100 100 100 100 100 100 100 100 100 100 100 100 99 94 93 91 84 84 84 77
89 95 99 100 100 100 100 100 100 99 98 100 100 100 100 100 99 100 100 99 94 99 84 83 88 85 84
100 100 100 100 100 100 100 98 98 100 100 98 100 100 100 100 98 100 100 100 96 89 89 93 92 93 84
100 99 100 100 100 100 100 100 100 100 100 100 100 100 99 99 95 99 100 92 100 98 97 96 100 93 82
100 100 100 100 100 100 100 100 100 100 100 100 100 100 97 94 100 94 90 100 100 95 100 100 95 90 77
97 99 99 99 100 100 100 100 100 100 100 100 100 100 100 96 94 89 98 100 96 98 100 96 90 85 77

GFSFLT2_250_rhum_102.txt.gz
RH
36 36 35 36 39 42 41 42 39 39 41 38 40 38 39 44 48 51 52 54 62 69 79 73 64 55 55
34 32 34 34 36 36 34 36 38 40 38 37 41 43 46 51 57 52 56 62 71 72 71 76 72 65 68
33 30 31 32 33 34 37 39 39 39 41 42 47 48 56 57 49 54 61 71 81 85 77 72 68 70 77
32 32 33 33 34 37 39 38 41 44 46 51 54 55 53 55 56 63 79 86 93 85 75 66 73 80 85
33 33 33 35 37 40 41 44 43 45 46 46 45 53 56 60 68 71 86 93 100 86 74 73 86 94 92
32 35 35 38 40 40 42 40 40 38 40 37 49 51 58 68 81 86 96 100 99 85 80 91 99 98 92
28 27 26 28 30 31 30 31 33 37 42 50 56 60 69 83 94 94 100 100 99 89 96 100 100 97 94
25 23 21 22 26 29 29 31 34 47 53 59 68 76 90 94 99 100 100 100 94 92 100 100 100 100 100
21 22 23 22 20 20 21 26 34 54 62 74 88 93 99 100 100 100 100 100 93 97 100 100 100 100 99
20 19 19 22 23 22 24 34 45 50 86 94 100 100 100 100 100 100 100 94 98 97 100 100 100 100 98
27 26 27 29 30 34 46 59 76 94 100 100 100 100 100 100 100 98 100 100 100 100 100 100 100 100 88
50 51 46 52 62 71 79 95 100 100 100 100 100 100 100 100 98 100 99 100 100 100 100 100 100 92 88
70 70 70 72 83 91 100 100 100 100 100 100 100 100 100 100 100 96 100 100 100 100 100 100 98 96 91
82 84 90 93 98 100 99 100 100 100 100 100 100 100 100 100 96 99 100 98 100 100 100 99 100 100 100
95 95 94 96 100 100 100 100 100 100 100 100 100 100 100 100 98 98 100 99 100 99 98 98 100 100 100
100 99 98 99 100 98 96 96 99 99 100 100 100 100 100 97 94 96 100 100 100 99 96 100 100 100 97
100 100 100 100 100 100 100 100 100 100 100 100 98 95 95 98 96 87 95 100 100 100 100 100 94 100 99

GFSFLT2_250_rhum_105.txt.gz
RH
38 35 38 39 41 36 37 40 43 41 37 36 37 38 40 42 43 48 48 52 57 56 52 58 72 73 80
37 40 38 36 36 38 41 44 40 39 38 38 40 44 45 46 50 56 58 64 57 52 58 70 83 83 78
36 36 35 35 36 40 40 41 40 43 43 42 46 47 51 55 63 66 74 56 59 63 72 88 92 91 74
32 32 33 36 38 37 38 40 43 46 47 50 52 53 55 62 72 56 55 58 67 75 86 99 100 94 75
26 30 30 26 23 24 29 30 32 39 44 46 42 43 49 58 58 58 59 67 72 97 98 100 100 90 80
20 20 21 20 20 22 25 25 26 29 31 32 32 38 40 50 61 61 76 86 87 100 100 100 100 92 92
21 20 20 21 22 21 21 21 21 24 28 28 36 40 45 56 70 81 92 98 100 100 100 100 100 93 100
22 23 22 21 21 22 22 24 22 23 21 23 27 31 46 71 82 90 100 100 100 100 100 100 96 98 97
26 28 28 27 26 22 19 21 22 24 26 27 30 39 71 88 98 100 100 100 100 100 100 100 99 100 92
43 40 34 26 23 25 25 25 27 27 31 36 51 76 90 95 100 100 100 100 100 100 100 100 100 98 100
58 41 34 37 38 38 38 34 36 43 52 70 85 91 99 100 100 100 100 100 100 100 100 99 100 100 100
48 52 58 54 54 55 57 63 66 76 79 91 99 100 100 100 100 100 100 100 100 100 100 100 99 100 98
61 79 76 73 73 77 83 86 94 100 100 100 100 100 100 100 100 100 100 100 100 100 100 95 97 100 98
80 83 84 89 94 95 96 96 96 98 100 100 100 100 99 100 100 100 100 100 100 100 100 100 99 99 95
83 87 91 92 92 94 97 95 94 98 99 100 100 100 100 98 99 100 100 99 100 98 100 98 97 98 91
97 99 99 100 100 100 99 99 98 100 100 100 100 100 97 92 93 100 96 99 100 96 86 89 96 98 99
91 97 100 100 100 100 99 99 100 100 100 100 96 94 94 96 100 90 87 95 97 98 100 99 98 100 98

GFSFLT2_250_rhum_108.txt.gz
RH
54 41 38 39 33 31 34 38 36 34 33 38 45 50 52 51 54 52 53 52 56 61 66 66 68 76 62
31 27 30 30 31 33 32 28 25 28 32 39 44 45 51 53 54 54 58 62 66 68 81 91 71 66 65
29 28 28 32 35 31 23 22 26 30 33 32 31 34 39 45 55 59 63 74 83 87 84 75 69 73 83
28 31 34 34 24 20 19 20 21 22 24 25 26 32 38 41 47 54 68 78 74 80 81 82 78 85 95
33 32 23 21 20 20 20 21 22 22 24 25 25 27 30 34 38 42 51 62 63 77 80 82 86 99 100
26 22 21 21 21 22 21 21 25 22 20 21 23 26 30 34 39 42 51 63 76 75 88 95 100 100 100
22 22 21 20 21 21 20 21 21 22 24 23 24 24 25 29 34 43 52 64 74 89 100 100 100 100 100
23 22 22 23 23 25 28 28 26 22 20 20 22 23 28 31 33 36 47 58 80 100 100 100 100 100 100
25 26 27 28 32 36 30 31 22 24 29 26 26 26 30 34 44 60 66 83 99 100 100 100 100 100 100
29 32 36 43 44 45 39 30 32 35 37 34 32 37 37 46 54 67 81 100 100 100 100 100 100 100 100
36 45 48 42 44 44 41 41 45 46 47 52 55 57 57 71 83 92 100 100 100 100 100 100 100 100 100
47 40 37 38 36 42 49 66 62 60 63 72 80 82 89 95 99 100 100 100 100 100 100 100 100 100 100
32 31 32 36 44 53 67 79 77 74 80 84 90 92 97 100 100 100 100 100 100 100 100 100 100 100 100
33 39 49 54 60 75 78 79 87 92 93 94 97 94 99 100 100 100 100 100 100 100 100 100 100 100 100
51 56 62 68 71 79 90 92 94 100 100 100 100 100 99 94 97 100 100 100 100 100 100 100 100 100 100
49 53 63 74 83 87 92 98 100 100 100 100 100 100 99 94 92 96 100 100 99 96 93 95 96 100 98
40 52 58 64 71 81 89 95 100 100 100 100 99 94 94 99 100 100 99 95 100 100 99 94 95 99 96

GFSFLT2_250_rhum_111.txt.gz
RH
89 85 74 92 78 71 46 37 27 24 27 25 20 20 20 22 24 28 34 39 44 51 61 66 72 79 98
84 78 88 89 61 44 35 26 25 26 22 20 18 19 20 20 23 27 31 40 48 58 74 82 89 98 100
84 73 86 56 51 44 30 26 26 22 21 20 19 20 21 22 23 28 31 41 56 76 90 98 97 96 85
70 54 64 53 55 37 26 26 23 20 21 22 22 22 22 23 24 27 30 37 49 76 81 94 97 91 90
62 71 56 57 38 28 26 23 20 22 21 21 20 23 26 27 27 30 33 39 52 77 92 100 94 91 96
80 72 56 27 26 28 23 22 24 23 22 21 26 28 26 25 25 27 32 39 52 78 95 100 97 100 98
66 64 27 27 25 22 23 25 26 25 25 29 28 24 21 23 23 24 26 30 38 52 81 97 98 100 100
45 22 26 21 21 23 25 28 27 29 34 27 25 25 27 30 28 27 31 38 44 54 63 77 96 100 100
21 22 22 20 21 24 27 30 32 39 32 29 32 35 32 34 33 34 36 43 54 68 78 90 98 100 100
20 22 20 22 25 28 33 35 39 32 31 32 40 45 42 44 45 50 58 56 60 67 77 88 100 100 100
19 21 24 28 32 35 38 35 29 29 34 39 53 55 55 54 57 64 75 78 78 89 85 97 100 100 100
26 27 32 36 38 36 28 29 30 40 48 52 64 64 64 66 71 73 82 91 99 100 100 100 100 100 100
35 37 38 39 32 30 32 35 47 51 61 79 77 71 74 76 82 84 87 92 98 100 100 100 100 100 100
39 40 38 30 33 43 48 53 57 66 71 88 97 91 87 87 86 91 99 100 100 100 100 100 100 100 100
42 36 31 42 48 47 46 51 60 75 87 95 100 100 100 94 90 97 98 99 100 100 100 100 100 100 99
34 34 46 46 43 41 40 44 55 67 82 90 97 99 99 100 99 100 100 100 98 91 92 95 100 100 100
42 52 45 41 37 34 34 42 49 59 72 86 90 92 100 100 100 100 96 90 88 89 98 100 98 100 100

GFSFLT2_250_rhum_114.txt.gz
RH
100 65 100 94 100 86 86 100 80 64 66 76 65 19 19 16 16 19 19 20 21 24 31 43 64 77 89
85 94 100 96 97 94 79 78 73 70 89 74 72 21 17 16 18 19 20 20 21 25 37 45 66 84 100
100 94 92 89 71 71 79 67 83 79 84 84 42 20 16 19 19 20 21 24 28 30 34 49 74 79 100
100 100 93 79 82 68 82 88 96 68 58 77 21 20 18 18 21 24 26 25 29 37 42 59 78 95 100
100 100 91 81 75 94 87 82 74 64 67 25 24 20 19 20 25 24 20 20 20 30 47 59 72 95 100
100 100 96 62 91 86 86 76 66 75 42 20 24 21 22 26 25 22 21 22 23 24 36 55 75 88 87
75 83 97 100 91 99 86 84 62 48 21 22 23 25 28 29 23 24 26 26 27 30 35 38 67 87 88
100 89 93 90 96 90 78 78 51 20 22 24 27 30 32 28 25 28 30 31 30 31 41 50 62 77 94
88 86 93 92 62 60 55 28 22 20 23 28 33 33 30 27 30 38 41 37 37 38 42 58 73 76 86
100 100 99 78 58 44 21 20 21 24 28 32 34 29 28 32 41 46 48 46 48 51 56 59 68 81 90
90 92 65 57 36 22 21 22 25 29 31 33 28 30 35 43 51 52 56 60 58 51 68 82 84 78 76
79 64 33 25 22 23 25 28 30 31 32 29 38 42 42 49 66 61 64 66 72 76 75 80 87 92 95
46 26 25 26 26 29 31 31 33 33 32 46 47 48 51 54 73 78 75 72 76 78 83 88 92 98 100
30 32 34 32 34 34 33 36 34 32 45 46 45 52 62 68 80 90 91 86 83 81 81 83 86 91 95
45 44 43 41 40 40 40 36 32 44 42 39 40 46 61 71 85 91 94 98 97 95 96 95 97 98 96
60 54 52 53 49 48 38 38 45 41 37 36 36 42 59 73 79 96 94 97 100 97 99 100 100 100 100
74 69 65 62 57 42 45 55 48 41 38 40 42 47 59 73 83 91 90 91 96 100 100 97 98 100 100

GFSFLT2_250_rhum_120.txt.gz
RH
86 98 100 79 77 84 71 71 76 84 99 100 88 100 100 80 68 100 92 68 57 23 20 20 26 28 32
100 89 87 87 74 84 79 79 79 93 100 100 90 97 88 81 90 98 92 53 41 19 20 23 28 28 34
100 88 98 77 74 87 87 96 100 100 100 100 100 90 82 95 100 100 71 54 27 20 20 27 30 25 29
93 93 100 70 72 89 100 100 100 96 100 100 60 74 100 100 96 84 82 43 21 21 22 30 28 26 32
100 93 88 80 100 100 100 100 100 100 93 100 93 100 99 100 80 64 56 27 23 24 24 30 27 27 34
99 100 89 100 100 100 100 100 100 95 97 75 100 100 100 96 85 76 44 32 25 26 24 28 27 31 42
100 100 91 100 100 100 100 100 100 95 94 100 100 84 91 89 88 47 37 27 29 26 26 25 28 34 43
100 100 99 100 100 100 100 100 71 89 97 100 99 85 100 66 63 40 32 29 30 25 23 26 32 37 37
100 100 100 100 100 100 91 100 100 100 100 84 95 82 79 75 40 38 34 35 29 25 24 31 33 39 45
100 100 100 100 97 88 98 95 88 99 100 96 99 92 60 51 44 44 42 37 32 27 33 36 35 39 46
100 100 91 100 100 89 100 100 99 98 98 98 97 82 74 43 47 48 47 41 36 38 44 43 42 42 45
92 100 99 100 100 99 97 99 100 100 98 99 77 80 61 46 53 56 52 48 46 53 52 51 52 54 52
99 100 99 90 98 96 100 99 99 87 83 70 53 63 67 64 64 66 64 55 64 66 55 61 69 70 62
100 100 100 100 100 100 100 89 99 72 64 68 60 64 79 85 78 74 68 61 78 77 68 70 68 77 79
100 100 100 100 100 98 78 61 77 89 71 64 72 84 92 92 87 80 68 71 78 78 75 75 77 82 91
100 92 69 56 54 65 62 72 76 81 78 82 83 91 95 93 88 85 80 84 74 70 72 78 88 86 93
43 50 54 59 68 68 79 84 94 91 86 82 87 98 95 94 90 87 93 88 73 69 76 78 87 90 90

GFSFLT2_250_rhum_123.txt.gz
RH
96 72 100 100 99 81 72 67 73 67 72 73 76 98 84 75 72 77 88 93 100 98 83 69 52 42 24
100 100 100 100 94 84 88 95 68 58 77 96 97 90 100 76 81 88 83 98 92 87 91 83 44 37 29
100 100 92 80 92 74 99 80 86 83 81 94 98 100 87 88 99 100 100 100 98 98 84 48 38 28 32
100 99 73 94 100 98 88 82 86 86 100 100 100 100 99 100 92 93 100 98 96 84 74 58 37 25 33
79 61 77 100 100 93 98 96 100 100 100 100 97 84 100 93 80 96 92 79 99 85 78 64 46 28 32
77 89 100 100 99 93 100 100 100 100 100 86 83 100 100 92 98 100 98 63 69 99 76 61 37 27 35
100 94 99 100 99 100 100 100 100 100 100 98 94 100 99 96 96 95 100 80 72 95 61 45 34 29 33
98 93 100 100 100 100 100 98 100 93 100 90 100 96 100 97 90 85 96 82 83 82 45 41 33 31 30
100 100 100 100 100 100 98 100 100 92 99 100 97 94 82 97 91 99 100 88 98 70 49 41 33 30 35
95 100 100 100 100 100 100 100 100 100 100 100 91 88 100 94 86 83 100 84 71 48 50 46 36 35 45
100 100 100 100 100 97 100 100 100 94 100 92 87 100 100 100 93 100 84 78 63 60 58 56 44 43 52
100 100 100 100 100 92 100 97 98 98 100 98 100 100 100 100 99 90 71 71 71 79 73 63 53 59 60
100 100 100 100 99 100 100 100 100 100 100 100 89 100 82 100 93 82 83 66 89 91 81 76 63 70 76
100 100 100 100 100 100 100 100 100 100 100 97 92 65 86 80 88 78 73 79 94 92 80 80 69 80 84
100 100 100 100 100 100 100 100 100 97 82 73 72 83 86 88 83 73 80 87 95 95 86 85 86 90 89
100 100 100 100 100 100 100 99 70 59 71 77 88 91 90 88 77 79 88 93 96 94 95 91 91 89 87
100 89 100 89 85 96 62 51 56 67 84 93 92 93 98 87 84 88 92 92 94 96 100 96 98 93 81

GFSFLT2_250_rhum_126.txt.gz
RH
90 90 90 80 61 97 90 85 100 99 100 92 57 77 89 71 65 56 100 88 100 100 86 76 100 82 75
90 93 57 77 98 89 100 100 100 100 87 58 77 76 92 67 78 90 100 100 99 78 92 99 86 76 84
74 60 98 92 100 100 100 100 99 78 78 77 67 95 86 76 79 100 87 99 94 98 77 69 71 83 98
99 96 97 100 100 100 72 68 74 66 74 87 97 82 74 93 100 90 100 92 96 100 98 90 78 61 70
98 100 100 92 67 68 63 85 70 88 82 97 93 98 100 100 87 100 95 100 93 93 89 83 80 80 91
100 96 68 63 61 84 97 98 69 100 100 100 100 100 100 100 100 99 100 87 87 87 95 88 88 91 89
79 68 89 100 94 99 100 99 97 100 100 100 99 98 100 100 76 100 97 100 81 88 94 82 76 66 90
100 98 90 100 100 100 100 100 100 100 100 100 100 100 98 100 100 98 88 88 96 99 84 74 81 77 44
100 100 100 100 100 100 100 100 100 100 100 97 100 96 100 95 94 92 90 100 100 100 80 75 67 85 56
100 100 100 100 100 100 100 100 100 100 100 100 100 100 91 94 91 82 100 100 100 95 76 59 81 82 58
100 100 100 100 100 100 100 100 100 100 100 100 100 100 99 95 90 100 100 100 98 73 56 80 92 82 77
100 100 100 100 100 100 100 100 100 100 100 100 100 100 98 98 100 100 100 94 69 52 82 94 98 85 87
100 100 100 100 100 100 100 100 100 100 100 92 100 100 100 100 100 100 82 72 51 70 90 95 91 92 100
100 100 100 100 100 100 100 100 100 97 100 100 100 100 100 100 100 88 65 77 64 84 91 94 94 95 100
100 100 100 100 100 100 100 100 100 100 100 100 100 100 100 94 86 67 80 75 82 86 88 90 92 93 100
100 100 100 100 100 100 100 100 100 100 100 100 99 97 68 75 74 83 83 85 88 88 88 89 95 99 97
100 100 100 100 100 100 100 100 100 93 62 80 66 79 82 88 85 87 93 94 96 90 87 93 99 100 100

GFSFLT2_250_rhum_129.txt.gz
RH
100 100 100 100 96 100 100 78 92 91 48 72 76 87 76 69 61 68 48 57 54 72 79 94 98 67 85
100 100 100 97 100 100 77 69 60 64 56 99 79 84 78 63 59 52 74 53 79 74 80 92 84 73 98
100 100 94 100 97 93 89 50 88 94 87 95 98 83 63 50 67 78 67 83 89 100 100 97 89 89 100
100 100 100 74 81 71 85 100 90 100 100 97 88 76 62 73 84 86 94 94 98 100 96 98 94 92 80
100 100 93 98 100 100 97 100 100 97 100 83 84 69 88 80 94 99 96 100 100 91 87 91 100 77 70
100 100 100 83 92 94 100 100 100 100 97 73 82 80 91 98 95 100 100 100 97 97 100 100 92 68 83
95 100 100 100 99 95 100 100 100 96 99 91 95 98 100 100 100 96 100 99 100 100 100 88 82 87 77
100 100 100 94 100 97 87 87 85 100 100 100 100 98 92 100 100 100 100 100 100 100 86 93 88 90 91
95 100 88 98 100 97 91 100 100 100 100 100 87 100 100 97 100 100 100 91 100 100 100 88 95 95 78
100 100 100 100 100 100 100 100 100 100 100 100 100 100 100 100 100 100 100 100 100 100 97 84 92 85 69
100 100 100 100 100 100 100 100 100 100 100 100 100 100 100 100 100 100 100 100 99 88 90 100 99 96 59
100 100 100 100 100 100 100 100 100 100 100 100 100 100 100 100 98 99 100 98 99 96 100 98 80 57 66
100 100 100 100 100 100 100 100 100 100 100 100 100 100 100 100 100 100 100 97 100 100 99 86 74 56 67
100 100 100 100 100 100 100 100 100 100 100 100 100 100 100 100 100 100 100 100 100 100 81 52 61 66 79
100 100 100 100 100 100 100 100 100 100 100 100 100 100 100 100 100 100 100 100 96 66 54 66 70 79 81
100 100 100 100 100 100 100 100 100 100 100 100 100 100 100 100 100 100 100 65 51 65 74 82 83 85 89
31 34 46 100 100 100 100 100 100 100 100 100 100 100 100 100 100 91 54 56 72 76 82 87 90 94 98

GFSFLT2_250_rhum_135.txt.gz
RH
100 100 100 97 94 90 62 70 100 100 98 82 65 70 87 100 100 100 99 86 100 85 83 86 63 71 59
100 100 100 85 98 100 98 94 75 74 78 77 87 100 100 100 100 100 100 100 96 66 99 62 60 65 52
100 100 100 100 100 100 85 100 84 95 92 99 100 99 100 100 100 100 100 96 98 99 74 71 52 50 42
100 100 100 100 100 98 100 100 100 99 98 97 94 99 90 100 76 100 100 98 94 96 77 64 65 86 54
100 100 100 100 100 100 100 100 100 100 100 99 98 93 100 100 96 95 94 85 85 77 77 73 88 74 84
100 100 100 100 100 100 100 100 100 100 100 100 93 100 88 100 92 93 86 100 98 100 100 100 99 97 100
100 100 100 100 94 100 98 100 100 100 100 100 100 100 100 100 100 100 98 100 100 100 100 100 100 100 100
100 100 100 93 100 100 100 100 100 100 100 100 100 100 100 100 100 100 100 100 100 100 100 100 100 100 100
100 100 100 100 100 100 100 100 100 100 100 100 100 100 100 100 100 100 100 100 100 100 100 100 100 100 100
100 99 85 73 71 79 79 61 87 100 100 100 100 100 100 100 100 100 100 100 100 100 100 100 100 100 100
73 74 70 66 67 68 62 55 59 51 64 100 100 100 100 100 100 100 100 100 100 100 100 100 100 100 100
83 81 82 79 70 65 68 62 64 65 55 53 55 93 100 100 100 100 100 100 100 100 100 100 100 100 100
74 70 65 62 57 56 52 55 58 56 54 58 58 60 58 75 100 100 100 100 100 100 100 100 100 100 100
63 58 52 42 35 30 26 27 30 34 41 41 42 45 52 58 59 94 100 100 100 100 100 100 100 100 100
58 48 31 23 18 12 9 10 13 20 23 30 36 36 45 52 62 85 100 100 100 100 100 100 100 100 100
52 32 19 12 7 6 8 8 9 12 17 23 28 36 42 57 69 71 88 100 100 97 91 96 98 100 97
35 20 9 6 6 6 6 7 8 10 14 18 22 29 37 45 59 68 82 78 78 79 79 85 84 76 68

GFSFLT2_250_rhum_138.txt.gz
RH
100 100 100 99 91 98 100 100 100 100 98 73 90 94 86 82 72 98 91 98 88 96 98 96 100 100 100
100 100 100 100 98 100 100 100 100 94 100 100 100 100 100 90 92 86 100 100 100 100 100 100 100 100 100
100 100 100 100 100 86 100 100 100 100 100 99 100 97 100 84 100 100 95 99 99 99 100 100 100 88 77
100 99 100 100 100 100 100 100 100 100 100 100 99 92 97 100 100 100 100 100 100 100 100 100 92 79 70
100 100 100 100 100 100 100 100 100 100 100 100 100 100 100 100 100 99 100 100 100 100 100 100 100 100 100
100 100 100 100 100 100 100 100 100 100 100 100 100 99 100 100 100 100 100 100 100 100 100 100 100 100 100
100 100 100 100 100 100 100 100 96 100 100 100 100 100 100 100 100 100 100 100 100 100 100 100 100 100 100
100 100 100 100 100 100 99 98 84 88 94 90 88 100 100 95 89 83 100 100 100 100 100 100 100 100 100
100 100 100 100 97 79 92 69 62 65 57 62 70 65 58 58 51 53 52 57 65 88 100 100 100 100 100
100 100 99 95 95 64 61 45 46 49 58 58 71 72 73 75 58 58 62 62 61 63 74 100 100 100 100
98 86 96 89 71 53 50 57 52 56 64 72 68 67 66 61 57 57 58 59 59 66 69 79 99 100 100
99 76 61 53 51 55 58 59 60 50 47 50 50 48 41 37 36 36 42 48 63 69 70 74 81 100 100
47 50 54 59 54 56 52 55 48 42 35 39 34 32 22 13 12 16 26 38 56 76 86 81 87 100 100
56 53 53 54 56 56 50 48 48 45 35 41 26 12 10 10 10 12 15 27 42 62 74 88 100 100 100
52 50 47 45 46 46 48 51 48 41 31 24 10 10 10 10 11 12 13 22 36 50 70 83 92 99 100
47 48 48 54 53 51 50 46 41 34 21 10 8 9 9 10 12 12 15 22 35 45 60 83 82 85 93
46 48 52 52 51 47 43 40 36 19 8 8 8 8 9 10 13 15 17 26 34 50 60 61 75 86 92

GFSFLT2_250_rhum_141.txt.gz
RH
99 100 100 100 100 100 100 93 96 99 100 100 100 100 100 80 95 100 100 100 100 100 100 94 100 99 86
100 100 100 100 100 100 100 100 99 99 100 100 100 97 100 100 100 91 100 92 96 92 100 100 100 100 100
100 100 100 100 100 100 100 100 100 100 100 100 100 100 100 100 99 100 100 100 100 100 100 100 100 100 100
100 100 100 100 100 100 100 100 100 100 100 100 100 100 100 100 97 93 100 100 98 91 100 100 100 100 100
100 100 100 100 100 100 100 100 100 100 100 100 97 100 99 100 100 100 100 90 70 80 100 100 100 100 100
100 100 100 100 100 100 100 100 100 100 100 100 100 100 100 100 100 89 80 63 47 47 50 62 65 68 87
100 100 100 100 100 100 100 100 100 100 100 100 100 100 99 89 80 81 63 46 48 47 54 64 65 70 67
100 100 100 100 100 100 100 100 100 100 100 100 99 94 90 82 74 69 52 55 57 57 54 71 73 70 72
100 100 100 99 99 100 100 100 100 96 91 93 89 82 75 71 44 49 47 51 53 56 52 56 65 70 65
100 100 99 88 90 92 100 100 92 100 91 84 83 51 44 49 52 43 42 44 47 45 39 39 46 52 54
98 92 86 99 95 100 100 94 64 56 54 54 55 52 49 54 50 42 36 40 40 27 18 15 20 28 40
84 99 100 99 92 68 53 48 52 58 58 58 60 60 52 48 45 36 35 35 23 10 10 11 12 16 26
95 88 61 52 48 52 50 55 59 57 58 58 57 52 48 42 34 33 35 27 11 10 10 12 14 19 34
46 48 50 51 50 52 54 62 60 60 58 56 53 48 44 40 38 37 36 19 9 9 9 12 15 23 41
49 52 52 50 48 53 61 65 61 58 54 56 49 46 46 42 42 40 25 11 9 9 10 12 16 28 55
53 51 51 54 55 58 57 56 54 52 58 52 54 51 44 43 41 34 12 12 9 9 11 14 18 29 56
56 52 50 50 53 61 55 52 60 59 56 59 51 47 40 43 36 14 14 11 9 9 13 14 19 37 63